Location: ??????
(41.3794°N, 22.5014°E)
Time: 08:16:07
(UTC+00:00)

USA 281 - Pass Details

Date: 30 November 2020
Orbit: 1074 x 1084 km, 106.0° (Epoch: 08 January)

Event Time Altitude Azimuth Distance (km) Brightness Sun altitude
Rises 16:22:00 0° 129° (SE) 3,872 5.8 -14.8°
Reaches altitude 10° 16:24:40 10° 121° (ESE) 2,918 5.1 -15.2°
Maximum altitude 16:30:37 39° 56° (NE) 1,577 3.6 -16.3°
Drops below altitude 10° 16:36:35 10° 351° (N) 2,925 5.4 -17.4°
Sets 16:39:16 0° 344° (NNW) 3,883 6.2 -17.9°
